[[{"header":{"parameterUnit":"m.s-1","parameterCategory":1,"la1":30.2991,"la2":30.254,"lo1":-89.0895,"lo2":-89.0444,"dy":0.0017,"dx":0.0017,"nx":28,"ny":28,"refTime":"2023-11-04T21:00:00:Z","depth":0,"parameterNumber":2,"parameterNumberName":"U-component_of_WINDS"},"data":[0,0,0,0,0,0,0,0,0,0,0,0,0,0,0,0,0,0,0,0,0,0,0,0,0,0,0,0,0,0,0,0,0,0,0,0,0,0,0,0,0,0,0,0,0,0,0,0,0,0,0,0,0,0,0,0,0,0,0.1001,0.1001,0,0.1018,0.1019,0.1019,0.1024,0.1024,0.1024,0.1023,0.1042,0.1042,0.1043,0,0,0,0,0,0,0,0,0,0,0,0,0,0.0973,0.0974,0.1001,0.1001,0.1001,0.1018,0.1019,0.1019,0.1024,0.1024,0.1024,0.1023,0.1041,0.1042,0.1043,0,0,0,0,0,0,0,0,0,0,0,0,0,0.0987,0.0974,0.1001,0.1006,0.1007,0.1018,0.1019,0.1019,0.1024,0.1024,0.1024,0.1023,0.1041,0.1042,0.1043,0.1051,0,0,0.1045,0.1046,0,0,0,0,0,0,0,0,0.0987,0.0988,0.1005,0.1006,0.1006,0.1019,0.1015,0.103,0.1024,0.1017,0.1023,0.1023,0.1034,0.1035,0.1039,0.1052,0.1052,0.1045,0.1046,0.1046,0.1047,0,0,0,0,0,0,0,0.0986,0.0988,0.1008,0.1005,0.1006,0.1008,0.1009,0.1018,0.1026,0.1018,0.1018,0.102,0.1034,0.1038,0.104,0.1053,0.1045,0.1046,0.1047,0.1047,0.1074,0.1074,0,0,0,0,0,0,0.0984,0.0987,0.1007,0.1008,0.0996,0.1008,0.101,0.1015,0.1026,0.1028,0.102,0.102,0.1037,0.1039,0.104,0.1051,0.1046,0.1047,0.1048,0.1074,0.1074,0.1074,0,0,0,0,0,0,0.0983,0.0985,0.1007,0.0998,0.1001,0.1009,0.1014,0.1015,0.1019,0.1028,0.103,0.1023,0.1037,0.1039,0.1048,0.1052,0.1047,0.1048,0.1074,0.1074,0.1074,0.1073,0,0,0,0,0,0,0.0982,0.0985,0.0988,0.0998,0.1001,0.1014,0.1014,0.1016,0.1021,0.1021,0.1031,0.1032,0.1037,0.1047,0.1049,0.1053,0.1049,0.1073,0.1074,0.1074,0.1072,0.1073,0.1073,0,0,0,0,0,0.0981,0.0987,0.0988,0.0991,0.1005,0.1014,0.1016,0.1021,0.1021,0.1024,0.103,0.1032,0.1051,0.1048,0.105,0.1054,0.1073,0.1074,0.1074,0.1072,0.1073,0.1073,0,0,0,0,0,0,0.0977,0.0988,0.099,0.0998,0.1005,0.1015,0.1019,0.1022,0.1029,0.1029,0.1035,0.1038,0.1047,0.1051,0.1048,0.1063,0.1062,0.1063,0.106,0.1061,0.1061,0.106,0.105,0,0,0,0,0,0.0977,0.0984,0.0993,0.1,0.1003,0.1011,0.1015,0.1019,0.1026,0.1029,0.1036,0.1043,0.1051,0.1056,0.1064,0.1073,0.1076,0.1077,0.1078,0.1078,0.1079,0.1085,0.1086,0.1076,0.1076,0.1076,0,0,0.0977,0.0984,0.0988,0.0999,0.1005,0.1012,0.1013,0.1021,0.1026,0.103,0.104,0.1045,0.1054,0.1064,0.1068,0.1068,0.1082,0.1079,0.1079,0.1079,0.1086,0.1087,0.1088,0.1076,0.1076,0.1076,0,0,0.0981,0.0987,0.0994,0.1,0.1009,0.1014,0.1015,0.1025,0.1029,0.1038,0.1042,0.1049,0.1062,0.1068,0.1073,0.1081,0.1084,0.1084,0.1086,0.1092,0.1093,0.1094,0.1097,0.1099,0.1084,0.1084,0.1084,0,0.0981,0.0991,0.0997,0.1004,0.101,0.1014,0.1021,0.1027,0.1038,0.1042,0.1041,0.1059,0.1065,0.1077,0.1079,0.1082,0.1085,0.1083,0.1092,0.1093,0.1094,0.1098,0.1099,0.1084,0.1084,0.1084,0.1084,0,0.099,0.0998,0.1002,0.1013,0.1019,0.1026,0.1034,0.1039,0.1042,0.1047,0.1058,0.1065,0.1075,0.1078,0.1081,0.1091,0.1091,0.1091,0.109,0.1095,0.1099,0.11,0.1084,0.1084,0.1084,0.1084,0,0,0.0992,0.1006,0.1008,0.1013,0.1024,0.103,0.1038,0.1048,0.1053,0.106,0.1068,0.1079,0.108,0.1086,0.109,0.1095,0.1102,0.1095,0.1096,0.1097,0.1115,0.1115,0.1116,0.1104,0.1104,0.1104,0.1114,0,0.0998,0.1012,0.1018,0.103,0.1037,0.1042,0.1049,0.1057,0.1062,0.107,0.1076,0.1084,0.1084,0.1088,0.1094,0.11,0.1106,0.11,0.1112,0.1112,0.111,0.1118,0.1118,0.1126,0.1116,0.1116,0.1116,0,0.1006,0.1015,0.1027,0.1038,0.1042,0.1048,0.1058,0.1065,0.1074,0.1078,0.1085,0.1088,0.1098,0.1096,0.111,0.1105,0.111,0.1115,0.1115,0.1117,0.1115,0.112,0.1129,0.1131,0.1118,0.1118,0.1118,0,0.1007,0.1021,0.1031,0.1035,0.1048,0.1053,0.1058,0.1067,0.1073,0.1082,0.1086,0.1096,0.1101,0.1109,0.1116,0.1114,0.1129,0.1127,0.1133,0.1133,0.1136,0.1136,0.1147,0.1138,0.1138,0.1138,0.1138,0,0.1014,0.1021,0.1032,0.1038,0.1047,0.1054,0.1063,0.1069,0.1077,0.1085,0.1089,0.1096,0.1105,0.1113,0.1119,0.113,0.1132,0.1136,0.1137,0.1135,0.1135,0.1139,0.1139,0.1139,0.1139,0.1139,0.1139,0,0.1016,0.1023,0.1034,0.1045,0.1048,0.1055,0.1065,0.1071,0.1077,0.1087,0.109,0.1099,0.111,0.1117,0.113,0.1134,0.1146,0.1147,0.1143,0.1144,0.1149,0.1149,0.1164,0.1166,0.1156,0.1156,0.1156,0,0.1019,0.1026,0.1038,0.1043,0.1049,0.1058,0.1064,0.1071,0.1078,0.1089,0.1095,0.1105,0.1114,0.1131,0.1139,0.115,0.1152,0.1156,0.1153,0.1152,0.1153,0.1153,0.1154,0.1157,0.1157,0.1157,0.1157,0,0.1025,0.1029,0.1038,0.1048,0.1055,0.1064,0.1072,0.1077,0.1086,0.1093,0.1104,0.1111,0.1125,0.1136,0.1148,0.1154,0.1157,0.1158,0.116,0.1159,0.1156,0.1159,0.1145,0.1157,0.1157,0.1157,0.1157,0.1157,0.1029,0.1035,0.1045,0.1055,0.1062,0.1071,0.1077,0.1085,0.1094,0.1106,0.111,0.1121,0.1132,0.1148,0.1154,0.1164,0.1164,0.1166,0.1167,0.1168,0.1168,0.1154,0.1166,0.1166,0.1166,0.1166,0.1166,0,0.1036,0.1043,0.1052,0.1064,0.1072,0.1075,0.1085,0.1091,0.1101,0.1111,0.112,0.1133,0.1144,0.1154,0.1165,0.1171,0.1173,0.1174,0.1174,0.1176,0.1167,0.1165,0.1173,0.1173,0.1173,0.1173,0.1173,0.1173,0.104,0.1051,0.1056,0.1071,0.1078,0.109,0.1095,0.1103,0.1111,0.1125,0.1135,0.1141,0.1151,0.1164,0.1174,0.1177,0.1181,0.1182,0.1185,0.1177,0.1176,0.1176,0.1173,0.1183,0.1183,0.1193,0.1193,0.1193]},{"header":{"parameterUnit":"m.s-1","parameterCategory":1,"la1":30.2991,"la2":30.254,"lo1":-89.0895,"lo2":-89.0444,"dy":0.0017,"dx":0.0017,"nx":28,"ny":28,"refTime":"2023-11-04T21:00:00:Z","depth":0,"parameterNumber":3,"parameterNumberName":"V-component_of_WINDS"},"data":[0,0,0,0,0,0,0,0,0,0,0,0,0,0,0,0,0,0,0,0,0,0,0,0,0,0,0,0,0,0,0,0,0,0,0,0,0,0,0,0,0,0,0,0,0,0,0,0,0,0,0,0,0,0,0,0,0,0,-0.8894,-0.8894,0,-0.8932,-0.8932,-0.8932,-0.8933,-0.8932,-0.8932,-0.8931,-0.897,-0.8971,-0.8973,0,0,0,0,0,0,0,0,0,0,0,0,0,-0.8821,-0.8822,-0.8893,-0.8894,-0.8894,-0.8931,-0.8932,-0.8933,-0.8933,-0.8932,-0.8932,-0.8931,-0.8969,-0.8971,-0.8973,0,0,0,0,0,0,0,0,0,0,0,0,0,-0.8855,-0.8823,-0.8893,-0.8899,-0.89,-0.8931,-0.8932,-0.8933,-0.8933,-0.8932,-0.8931,-0.8931,-0.8969,-0.8971,-0.8973,-0.9001,0,0,-0.898,-0.8981,0,0,0,0,0,0,0,0,-0.8853,-0.8858,-0.8898,-0.8899,-0.89,-0.8927,-0.8921,-0.8956,-0.8933,-0.892,-0.8931,-0.893,-0.8956,-0.8959,-0.8968,-0.9003,-0.9005,-0.898,-0.8982,-0.8982,-0.8983,0,0,0,0,0,0,0,-0.8851,-0.8856,-0.8909,-0.8898,-0.89,-0.89,-0.8904,-0.8927,-0.8942,-0.8921,-0.8922,-0.8926,-0.8956,-0.8966,-0.8969,-0.9005,-0.898,-0.8982,-0.8983,-0.8984,-0.9066,-0.9067,0,0,0,0,0,0,-0.8847,-0.8854,-0.8907,-0.891,-0.8874,-0.8902,-0.8906,-0.8919,-0.8942,-0.8944,-0.8927,-0.8926,-0.8962,-0.8966,-0.897,-0.9005,-0.8982,-0.8985,-0.8986,-0.9065,-0.9066,-0.9067,0,0,0,0,0,0,-0.8846,-0.8852,-0.8906,-0.8882,-0.8889,-0.8904,-0.8918,-0.892,-0.8929,-0.8946,-0.8948,-0.8934,-0.8962,-0.8967,-0.8994,-0.9006,-0.8986,-0.8988,-0.9064,-0.9066,-0.9067,-0.9075,0,0,0,0,0,0,-0.8844,-0.8851,-0.8862,-0.8882,-0.889,-0.8929,-0.8919,-0.8921,-0.8933,-0.8933,-0.8953,-0.8955,-0.8962,-0.899,-0.8996,-0.9009,-0.8989,-0.9063,-0.9065,-0.9066,-0.9073,-0.9076,-0.9078,0,0,0,0,0,-0.8841,-0.8863,-0.8863,-0.8869,-0.8904,-0.8929,-0.8934,-0.8941,-0.8934,-0.8945,-0.8956,-0.8955,-0.9004,-0.8993,-0.8999,-0.9013,-0.9062,-0.9064,-0.9066,-0.9072,-0.9076,-0.9078,0,0,0,0,0,0,-0.8844,-0.8866,-0.8866,-0.8895,-0.891,-0.8929,-0.8944,-0.8944,-0.8962,-0.8961,-0.8969,-0.8973,-0.9,-0.9009,-0.8997,-0.9042,-0.9032,-0.9036,-0.9035,-0.9038,-0.9041,-0.9038,-0.8991,0,0,0,0,0,-0.8848,-0.8867,-0.8885,-0.8909,-0.8917,-0.8929,-0.894,-0.8944,-0.8961,-0.8967,-0.8979,-0.8995,-0.9014,-0.9027,-0.9045,-0.9075,-0.9079,-0.9087,-0.909,-0.9092,-0.9095,-0.9111,-0.9115,-0.9073,-0.9073,-0.9073,0,0,-0.8857,-0.8871,-0.8882,-0.891,-0.8922,-0.8942,-0.8934,-0.8955,-0.897,-0.897,-0.8996,-0.9006,-0.9024,-0.9052,-0.9065,-0.9061,-0.9107,-0.9094,-0.9096,-0.9097,-0.9113,-0.9117,-0.9121,-0.9075,-0.9074,-0.9074,0,0,-0.8882,-0.8895,-0.8916,-0.8929,-0.8948,-0.8956,-0.8961,-0.898,-0.8987,-0.9013,-0.9014,-0.9031,-0.9064,-0.9077,-0.9088,-0.9119,-0.9118,-0.9124,-0.9137,-0.9153,-0.9157,-0.916,-0.9171,-0.9175,-0.9127,-0.9127,-0.9127,0,-0.8891,-0.892,-0.8927,-0.8948,-0.896,-0.8962,-0.8984,-0.8996,-0.902,-0.9028,-0.9023,-0.9064,-0.9076,-0.9108,-0.9115,-0.9124,-0.913,-0.9122,-0.9156,-0.9159,-0.9162,-0.9172,-0.9177,-0.9128,-0.9128,-0.9127,-0.9127,0,-0.8929,-0.895,-0.8965,-0.8988,-0.9002,-0.9023,-0.9034,-0.9047,-0.905,-0.9058,-0.9085,-0.91,-0.9121,-0.9129,-0.9132,-0.9161,-0.9158,-0.9154,-0.9145,-0.9166,-0.9176,-0.9181,-0.9128,-0.9128,-0.9128,-0.9128,0,0,-0.8958,-0.8985,-0.8991,-0.9001,-0.9023,-0.9038,-0.906,-0.9081,-0.9092,-0.9109,-0.9127,-0.9155,-0.9151,-0.9164,-0.9168,-0.9182,-0.9206,-0.9177,-0.9177,-0.9182,-0.9239,-0.9242,-0.9246,-0.9206,-0.9207,-0.9207,-0.9237,0,-0.8986,-0.9024,-0.9031,-0.9065,-0.9084,-0.9085,-0.9104,-0.9119,-0.9128,-0.9145,-0.9154,-0.9174,-0.9168,-0.9176,-0.9189,-0.92,-0.9217,-0.9198,-0.9223,-0.9224,-0.9219,-0.9252,-0.9255,-0.9283,-0.9241,-0.9242,-0.9243,0,-0.9024,-0.9042,-0.9077,-0.9096,-0.9104,-0.9121,-0.9141,-0.9157,-0.9174,-0.9179,-0.9193,-0.9196,-0.9219,-0.9208,-0.9239,-0.9225,-0.9236,-0.9243,-0.9244,-0.9247,-0.9235,-0.9256,-0.9292,-0.9296,-0.9249,-0.9248,-0.9248,0,-0.9042,-0.9074,-0.91,-0.9109,-0.9131,-0.9143,-0.9153,-0.9169,-0.9182,-0.9199,-0.9207,-0.9227,-0.9238,-0.9253,-0.9262,-0.9253,-0.9292,-0.9282,-0.9297,-0.9297,-0.9305,-0.9305,-0.9344,-0.9312,-0.9312,-0.9312,-0.9311,0,-0.9073,-0.9094,-0.9108,-0.9123,-0.9148,-0.9156,-0.9179,-0.9189,-0.9203,-0.9221,-0.9224,-0.924,-0.925,-0.9268,-0.9274,-0.9299,-0.9304,-0.9309,-0.931,-0.9309,-0.9308,-0.9316,-0.9314,-0.9313,-0.9312,-0.9312,-0.9312,0,-0.9096,-0.9107,-0.9134,-0.9153,-0.9159,-0.9176,-0.9192,-0.9207,-0.9216,-0.9238,-0.9244,-0.9257,-0.9278,-0.9288,-0.9314,-0.9318,-0.9346,-0.9346,-0.9341,-0.9341,-0.9356,-0.9355,-0.9402,-0.9408,-0.9372,-0.9372,-0.9372,0,-0.9116,-0.9132,-0.9153,-0.9165,-0.9175,-0.9195,-0.9207,-0.9216,-0.9229,-0.925,-0.9262,-0.9284,-0.9301,-0.9335,-0.9347,-0.9367,-0.9367,-0.9383,-0.937,-0.9368,-0.9368,-0.9367,-0.9369,-0.9385,-0.9385,-0.9385,-0.9386,0,-0.9148,-0.9153,-0.9171,-0.9191,-0.9206,-0.9223,-0.9238,-0.9248,-0.9259,-0.9274,-0.9295,-0.9309,-0.9336,-0.9357,-0.9377,-0.9388,-0.9389,-0.9389,-0.9394,-0.9393,-0.9389,-0.9391,-0.9347,-0.9388,-0.9388,-0.9388,-0.9388,-0.9388,-0.9171,-0.9186,-0.9203,-0.9223,-0.9236,-0.9251,-0.9266,-0.9277,-0.9295,-0.9318,-0.9321,-0.9345,-0.9361,-0.9389,-0.94,-0.9418,-0.9415,-0.9421,-0.9423,-0.9425,-0.9426,-0.9386,-0.9422,-0.9422,-0.9422,-0.9422,-0.9422,0,-0.9204,-0.9215,-0.9234,-0.9256,-0.9272,-0.9272,-0.9289,-0.9303,-0.9323,-0.9339,-0.9356,-0.9381,-0.9401,-0.9415,-0.9436,-0.9448,-0.9449,-0.9453,-0.9452,-0.9455,-0.9428,-0.9422,-0.9452,-0.9452,-0.9452,-0.9452,-0.9452,-0.9452,-0.9223,-0.9249,-0.9255,-0.9287,-0.9298,-0.9321,-0.9331,-0.9344,-0.9357,-0.9385,-0.9402,-0.9411,-0.9426,-0.9448,-0.9466,-0.947,-0.9478,-0.9482,-0.9485,-0.946,-0.9457,-0.9454,-0.9448,-0.9483,-0.9483,-0.9511,-0.9511,-0.9511]}]]